Weather History for Defiance, OH

Change the Weather History Date:

Monday, September 26, 2011

  Actual Average Record
Temperature  
Mean Temperature 58 °F -  
Max Temperature 68 °F 70 °F 91 °F (1998)
Min Temperature 50 °F 46 °F 32 °F (1940)
Degree Days  
Heating Degree Days 6    
Growing Degree Days 8 (Base 50)    
Moisture  
Dew Point 55 °F    
Average Humidity 78    
Maximum Humidity 93    
Minimum Humidity 51    
Precipitation  
Precipitation 0.28 in - - ()
Sea Level Pressure  
Sea Level Pressure 29.76 in    
Wind  
Wind Speed 7 mph (SSE)    
Max Wind Speed 15 mph    
Max Gust Speed 22 mph    
Visibility 9 miles    
Events Rain , Thunderstorm    
Averages and records for this station are not official NWS values.
T = Trace of Precipitation, MM = Missing Value Source: NWS Daily Summary

Daily Weather History Graph

Daily Weather History Graph

Search for Another Location

Airport:

Trip Planner

Search our weather history database for the weather conditions in past years. The results will help you decide how hot, cold, wet, or windy it might be!

Date:

Astronomy

Sep. 26, 2011 Rise Set
Actual Time 7:28 AM EDT 7:28 PM EDT
Civil Twilight 7:01 AM EDT 7:56 PM EDT
Nautical Twilight 6:29 AM EDT 8:28 PM EDT
Astronomical Twilight 5:56 AM EDT 9:00 PM EDT
Moon 6:27 AM EDT (9/26) 6:42 PM EDT (9/26)
Length of Visible Light 12h 54m
Length of Day
11h 59m
Waning Crescent, 1% of the Moon is Illuminated
Sep 26
Waning Crescent
Sep 27
New
Oct 3
First Quarter
Oct 11
Full
Oct 19
Last Quarter

Hourly Weather History & Observations

Time (EDT) Temp. Dew Point Humidity Pressure Visibility Wind Dir Wind Speed Gust Speed Precip Events Conditions
12:53 AM 60.1 °F 57.0 °F 90% 29.85 in 7.0 mi Calm Calm - 0.02 in Rain Light Rain
1:53 AM 59.0 °F 57.0 °F 93% 29.80 in 4.0 mi NNE 8.1 mph - 0.07 in Rain Light Rain
2:36 AM 60.8 °F 57.2 °F 88% 29.81 in 2.0 mi SSE 3.5 mph - 0.13 in Rain Heavy Rain
2:43 AM 60.8 °F 57.2 °F 88% 29.82 in 1.2 mi SE 4.6 mph - 0.21 in Rain Heavy Rain
2:51 AM 60.8 °F 57.2 °F 88% 29.80 in 2.5 mi East 4.6 mph - 0.24 in Rain Rain
3:00 AM 60.8 °F 57.2 °F 88% 29.79 in 4.0 mi ENE 5.8 mph - 0.02 in Rain Rain
3:34 AM 60.8 °F 57.2 °F 88% 29.77 in 5.0 mi East 11.5 mph - 0.12 in Rain , Thunderstorm Rain
3:49 AM 60.8 °F 57.2 °F 88% 29.75 in 7.0 mi East 15.0 mph 21.9 mph 0.15 in Rain Light Rain
3:53 AM 61.0 °F 57.9 °F 90% 29.75 in 7.0 mi East 13.8 mph 21.9 mph 0.16 in Rain Rain
5:53 AM 64.0 °F 60.1 °F 87% 29.68 in 10.0 mi ESE 12.7 mph 20.7 mph 0.03 in   Partly Cloudy
6:53 AM 64.9 °F 61.0 °F 87% 29.67 in 10.0 mi SE 10.4 mph 21.9 mph 0.00 in   Scattered Clouds
8:43 AM 64.4 °F 60.8 °F 88% 29.70 in 10.0 mi SE 10.4 mph 19.6 mph 0.00 in   Overcast
8:50 AM 64.4 °F 60.8 °F 88% 29.70 in 10.0 mi SE 13.8 mph 18.4 mph 0.00 in   Overcast
8:53 AM 64.0 °F 61.0 °F 90% 29.70 in 10.0 mi SE 8.1 mph 18.4 mph 0.00 in   Overcast
9:12 AM 64.4 °F 60.8 °F 88% 29.70 in 10.0 mi SE 8.1 mph - N/A   Overcast
9:33 AM 64.4 °F 60.8 °F 88% 29.70 in 10.0 mi SE 6.9 mph - N/A   Overcast
9:45 AM 64.4 °F 60.8 °F 88% 29.71 in 10.0 mi SE 6.9 mph - N/A   Overcast
9:53 AM 64.0 °F 60.1 °F 87% 29.71 in 10.0 mi SE 5.8 mph - N/A   Overcast
10:23 AM 64.4 °F 60.8 °F 88% 29.73 in 10.0 mi SSW 12.7 mph 21.9 mph 0.01 in   Overcast
10:49 AM 60.8 °F 55.4 °F 82% 29.75 in 10.0 mi SW 9.2 mph - 0.01 in   Overcast
11:16 AM 60.8 °F 55.4 °F 82% 29.76 in 10.0 mi SSW 6.9 mph - N/A   Overcast
11:53 AM 63.0 °F 55.0 °F 75% 29.75 in 10.0 mi SSW 8.1 mph - N/A   Overcast
12:11 PM 62.6 °F 53.6 °F 72% 29.76 in 10.0 mi SW 11.5 mph 19.6 mph N/A   Mostly Cloudy
12:53 PM 64.0 °F 54.0 °F 70% 29.77 in 10.0 mi SSW 11.5 mph 18.4 mph N/A   Mostly Cloudy
1:21 PM 64.4 °F 53.6 °F 68% 29.78 in 10.0 mi SW 12.7 mph 20.7 mph N/A   Mostly Cloudy
1:31 PM 64.4 °F 51.8 °F 64% 29.78 in 10.0 mi SW 9.2 mph - N/A   Overcast
1:53 PM 64.9 °F 52.0 °F 63% 29.78 in 10.0 mi SW 11.5 mph - N/A   Scattered Clouds
2:53 PM 66.9 °F 51.1 °F 57% 29.76 in 10.0 mi SW 9.2 mph 18.4 mph N/A   Mostly Cloudy
3:53 PM 66.9 °F 50.0 °F 54% 29.76 in 10.0 mi SSW 10.4 mph 18.4 mph N/A   Mostly Cloudy
4:53 PM 66.9 °F 48.9 °F 52% 29.75 in 10.0 mi SW 8.1 mph - N/A   Scattered Clouds
5:53 PM 66.9 °F 48.0 °F 51% 29.77 in 10.0 mi SSW 6.9 mph - N/A   Partly Cloudy
6:53 PM 64.9 °F 46.9 °F 52% 29.78 in 10.0 mi SW 5.8 mph - N/A   Partly Cloudy
7:53 PM 60.1 °F 45.0 °F 57% 29.80 in 10.0 mi Calm Calm - N/A   Mostly Cloudy
8:53 PM 57.9 °F 46.0 °F 65% 29.81 in 10.0 mi Calm Calm - N/A   Clear
9:53 PM 53.1 °F 46.9 °F 80% 29.83 in 10.0 mi Calm Calm - N/A   Clear
10:53 PM 51.1 °F 46.9 °F 86% 29.84 in 10.0 mi Calm Calm - N/A   Clear
11:53 PM 50.0 °F 46.9 °F 89% 29.85 in 9.0 mi Calm Calm - N/A   Clear